Location: Alta
(39.2070°N, 120.8111°W)
Time: 23:14:33
(UTC+00:00)

FO-99 - Visible Passes

Search period start: 31 March 2023 00:00
Search period end: 10 April 2023 00:00
Orbit: 422 x 443 km, 97.1° (Epoch: 31 March)

Date Brightness Start Highest point End Pass type
(mag) Time Alt. Az. Time Alt. Az. Time Alt. Az.
31 Mar ? 02:58:38 10° SSE 03:01:59 90° WNW 03:05:20 10° NNW visible
01 Apr ? 03:52:03 10° SW 03:54:11 16° W 03:56:19 10° NW visible
02 Apr ? 03:10:18 10° S 03:13:36 59° W 03:16:54 10° NNW visible
03 Apr ? 04:04:36 10° WSW 04:05:38 11° W 04:06:41 10° WNW visible
04 Apr ? 03:21:38 10° S 03:24:46 39° W 03:27:55 10° NNW visible
06 Apr ? 03:32:36 10° SSW 03:35:28 27° W 03:38:22 10° NW visible
08 Apr ? 03:43:14 10° SW 03:45:44 20° W 03:48:14 10° NW visible
09 Apr ? 03:01:06 10° S 03:04:23 82° WSW 03:07:42 10° NNW visible
